418 visiteurs
Prévisions de votre ville :
Vigilance : 62 départements Mise à jour le 21/09/2019 à 16:06 - Voir la carte

Paris Roissy CDG (95380) le 22/09/2019 à 01:00 Choisir station

21.5°C 52 % ESE Rafales 31 km/h
Vit. moyenne 19 kmh/h

Relevés météo quotidiens pour la station de :

UTC
S: Synop
M: Metar
Loc T°C
(°C)
Td
(°C)
HR
(%)
Vis
(km)
Néb
(octa)
Vent
(km/h)
Pression
(mb)
Précipitations
(mm)
Temps
              MOY
10 min
DIR RAF 1h MESURE VAR SUR 3h    
S 00 h 02h 21.9 13.5 59 20 - 4 11 1014.5 -0.1/3h 0.0/6h - 0.0/3h -
S 01 h 03h 21.7 14.3 63 20 - 4 6 1014.3 -0.4/3h 0.0/1h -
S 02 h 04h 20.9 14.3 66 20 - 7 15 1014.1 -0.7/3h 0.0/1h -
S 03 h 05h 19.6 13.8 69 20 - 7 11 1013.5 -1.1/3h 0.0/3h -
S 04 h 06h 19.4 13.6 69 20 - 9 13 1013.3 -1.1/3h 0.0/1h -
S 05 h 07h 19.5 13.7 69 20 - 7 19 1013.1 -1.0/3h 0.0/1h -
S 06 h 08h 20.9 13.6 63 20 - 7 17 1013.1 -0.4/3h 0.0/12h - 0.0/3h - 0.0/24h -
S 07 h 09h 22.9 13.7 56 20 - 6 13 1013.1 -0.1/3h 0.0/1h -
S 08 h 10h 24.8 14.6 53 20 - 4 11 1012.8 -0.2/3h 0.0/1h -
S 09 h 11h 27.5 13.4 42 20 7/8 6 11 1012.5 -0.4/3h 0.0/3h
S 10 h 12h 30.0 12.0 33 20 - 2 6 1012.2 -0.8/3h 0.0/1h -
S 11 h 13h 31.4 12.2 31 20 - 4 9 1011.9 -0.7/3h 0.0/1h -
S 12 h 14h 32.3 11.5 28 20 - 7 19 1011.6 -0.8/3h 0.0/6h - 0.0/3h -
S 13 h 15h 33.1 12.1 28 20 - 6 22 1011.1 -1.0/3h 0.0/1h -
S 14 h 16h 33.9 11.7 26 20 - 6 20 1010.7 -1.2/3h 0.0/1h -
S 15 h 17h 33.6 12.0 27 20 - 11 31 1010.7 -0.9/3h 0.0/3h -
S 16 h 18h 33.2 12.2 28 20 - 13 35 1010.8 -0.3/3h 0.0/1h -
S 17 h 19h 32.5 12.7 30 20 - 11 31 1010.5 -0.2/3h 0.0/1h -
S 18 h 20h 31.2 13.5 34 20 - 9 15 1010.6 -0.1/3h 0.0/12h - 0.0/3h -
S 19 h 21h 30.0 13.3 36 20 - 9 15 1010.9 0.0/3h 0.0/1h -
S 20 h 22h 27.9 13.8 42 20 - 11 35 1011.4 +0.8/3h 0.0/1h -
S 21 h 23h 26.2 13.3 45 20 - 13 26 1012.5 +1.8/3h 0.0/3h -
S 22 h 00h 24.2 12.5 48 20 - 15 31 1013.0 +2.0/3h 0.0/1h -
S 23 h 01h 22.6 11.9 51 20 - 6 13 1013.4 +1.9/3h 0.0/1h -
evolution des temperatures
cumul des precipitations
vent moyen et rafales
pression atmospherique

Un tiret (-) signifie que les données ne sont pas disponibles.

Passez la souris sur les pictos temps pour avoir plus de précisions. Passez les flèches sur l'icône de la direction du vent pour voir la direction précise en degrés.

Les données de l'heure en cours sont disponibles à partir de H+15 minutes.


S signifie station Synop, plus complète qu'une station Metar (M). Il y a +1h de différence entre l'heure UTC et l'heure légale en hiver et +2h en été.

Td est la mesure du point de rosée.

HR est l'humidité relative/p>

Vis est la visibilité

Néb est la nébulosité du ciel (couverture nuageuse) exprimée en octas (de 0/8 à 8/8).

Vent moy 10 min donne le vent moyen sur les 10 minutes qui précèdent le relevé.

Vent raf 1h donne la rafale maximale mesurée dans l'heure qui précède le relevé.


Les données les plus anciennes remontent à avril 2014.

Les données présentées sur cette page proviennent des stations météo officielles. Les relevés sont effectués aux normes en vigueur (anémomètre à 10m de haut, thermomètre sous abri normalisé à 2m du sol...)

Météo 60 décline toute responsabilité en cas d'absence de données, d'erreurs, de mauvaise utilisation ou interprétation et n'est pas habilité à fournir des certificats intempéries.